Location: Elstree
(51.6403°N, 0.2969°W)
Time: 06:03:40
(UTC+00:00)

SJ 16-02 - Pass Details

Date: 26 June 2021
Orbit: 606 x 616 km, 75.0° (Epoch: 26 July)

Event Time Altitude Azimuth Distance (km) Brightness Sun altitude
Rises 21:19:45 0° 343° (NNW) 2,878 6.4 -6.8°
Reaches altitude 10° 21:22:17 10° 355° (N) 1,969 5.0 -7.1°
Maximum altitude 21:26:02 27° 54° (NE) 1,187 2.8 -7.4°
Drops below altitude 10° 21:29:46 10° 113° (ESE) 1,958 3.4 -7.7°
Enters shadow 21:30:28 - 117° (ESE) 2,203 3.6 -7.8°
